Regional Weather Roundup
Issued by NWS

Home | Current Version | Previous Version | Text Only | Print | Product List | Glossary Off
Versions: 1 2 3 4 5 6 7 8 9 10 11 12 13 14 15 16 17 18 19 20 21 22 23 24 25 26 27 28 29 30 31 32 33 34 35 36 37 38 39 40 41 42 43 44 45 46 47 48 49 50

000
ASUS43 KDMX 251006
RWRIA

WEATHER ROUNDUP FOR IOWA
NATIONAL WEATHER SERVICE DES MOINES IA
500 AM CDT TUE JUL 25 2017

NOTE: "FAIR" INDICATES FEW OR NO CLOUDS BELOW 12,000 FEET WITH NO
SIGNIFICANT WEATHER AND/OR OBSTRUCTIONS TO VISIBILITY.

* - THESE STATIONS ARE NOT NWS STATIONS...THUS NOT UNDER NWS
QUALITY CONTROL.  THEY ALSO DO NOT REPORT WEATHER SUCH
AS PRECIPITATION OR FOG.

IAZ001>003-012>014-020>022-031>034-043>046-251100-
   NORTHWEST IOWA

CITY           SKY/WX    TMP DP  RH WIND       PRES   REMARKS
CARROLL *      CLOUDY    66  66 100 SE9       30.01S
CHEROKEE *     CLEAR     68  64  88 SE6       29.99R
DENISON *      CLEAR     70  64  83 S14       30.01R
ORANGE CITY *  CLEAR     68  64  88 SE6       29.96F
SHELDON *      CLEAR     68  64  88 SE9G15    29.95S
SIOUX CITY     CLEAR     72  67  84 SE7       29.95R
SPENCER        CLEAR     67  65  93 SE12      30.00S
STORM LAKE *   CLEAR     64  63  94 SE8       30.02R
$$

IAZ055>058-069>071-079>083-090>094-251100-
   SOUTHWEST IOWA

CITY           SKY/WX    TMP DP  RH WIND       PRES   REMARKS
ATLANTIC *     CLEAR     70  64  83 S8        30.02S
AUDUBON *      CLEAR     66  63  88 SE3       30.03S
CLARINDA *     CLEAR     70  66  88 S6        30.06R
COUNCIL BLFS * PTCLDY    72  68  88 S15G21    30.00F
CRESTON *      PTCLDY    66  64  94 SE10      30.07S
HARLAN  *      CLEAR     70  66  88 S9        30.04R
LAMONI         CLEAR     67  66  97 SE7       30.07F
RED OAK *      CLEAR     70  64  83 S7        30.03S
SHENANDOAH *     N/A     72  64  78 SE9G15    30.03R
$$

IAZ047>049-059>061-072>074-084-251100-
   CENTRAL IOWA

CITY           SKY/WX    TMP DP  RH WIND       PRES   REMARKS
AMES           CLEAR     65  65 100 SE9       30.05S
ANKENY *       CLEAR     66  64  94 SE12      30.06F
BOONE *        CLEAR     64  64 100 SE10      30.04S
CHARITON *     CLEAR     66  64  94 SE7       30.07F
DES MOINES     PTCLDY    68  65  90 SE14      30.04F
GRINNELL*      CLEAR     64  61  91 SE10      30.10S
KNOXVILLE *    CLEAR     66  63  88 SE9       30.07S
MARSHALLTOWN   CLEAR     64  62  93 SE9       30.07S
NEWTON *       CLEAR     64  63  94 SE9       30.08S
PELLA *          N/A     64  62  94 SE5       30.09S
$$

IAZ004>006-015-016-023>025-035-036-251100-
   NORTH CENTRAL IOWA

CITY           SKY/WX    TMP DP  RH WIND       PRES   REMARKS
ALGONA *       PTCLDY    66  66 100 SE14      30.03F
CLARION *      CLEAR     64  64 100 SE14      30.06S
ESTHERVILLE    PTCLDY    64  64 100 S13       30.00F
FORT DODGE *   PTCLDY    66  63  88 SE6       30.04S
MASON CITY     PTCLDY    63  61  93 SE13      30.09R
FOREST CITY *    N/A     64  63  94 SE10      30.06S
WEBSTER CITY * CLEAR     66  64  94 SE9G16    30.03R
IOWA FALLS *     N/A     64  62  93 SE6       30.09R
$$

IAZ007>011-017>019-026>030-037>042-050>054-066-251100-
   NORTHEAST IOWA

CITY           SKY/WX    TMP DP  RH WIND       PRES   REMARKS
CHARLES CITY * CLOUDY    63  63 100 SE7G13    30.10R
DECORAH *      CLOUDY    61  59  94 SE6       30.11R
DUBUQUE        CLEAR     60  58  92 S7        30.15S
MONTICELLO *   CLEAR     61  59  94 SE6       30.13S
OELWEIN *        N/A    N/A N/A N/A MISG        N/A
$$

IAZ064-065-067-068-078-251100-
   EAST CENTRAL IOWA

CITY           SKY/WX    TMP DP  RH WIND       PRES   REMARKS
DAVENPORT      CLEAR     60  58  92 E7        30.15F
MT. PLEASANT * CLEAR     62  62 100 E5        30.11S
MUSCATINE *    CLEAR     64  61  88 SE3       30.12F
QUAD CITIES    CLEAR     60  57  89 E8        30.13S
$$

IAZ062-063-075>077-085>089-095>099-251100-
   SOUTHEAST IOWA

CITY           SKY/WX    TMP DP  RH WIND       PRES   REMARKS
BURLINGTON     CLEAR     65  63  93 E6        30.11S
FAIRFIELD *    CLEAR     63  59  88 SE5       30.10S
FORT MADISON * PTCLDY    64  63  94 E3        30.11F
KEOKUK *       CLEAR     66  63  88 E9        30.10R
OSKALOOSA *      N/A     62  60  96 SE5       30.10S
CENTERVILLE *    N/A     63  63 100 CALM      30.10F
OTTUMWA        CLEAR     63  62  97 SE7       30.09F
WASHINGTON *   CLEAR     59  59 100 E5        30.12F FOG
$$

ABBREVIATIONS USED IN REMARKS
   TC - TEMPERATURES IN CELSIUS
  WCI - WIND CHILL INDEX
   HX - HEAT INDEX
  VSB - VISIBILITY
$$





USA.gov is the U.S. government's official web portal to all federal, state and local government web resources and services.